Flag for U.S.A. Weather past 2 weeks in Stamford, Connecticut, U.S.A.

Now
58 °F

Passing clouds.


Feels Like: 58 °F
Forecast: 51 / 69 °F
Wind: No wind

Location: Westchester County Airport

Current Time: Sep 16, 2014 at 11:40:30 PM

Latest Report: Sep 16, 2014 at 10:56 PM


Visibility: 10 mi

Pressure: 30.01 "Hg

Humidity: 81%

Dew point: 52 °F

Location of StamfordLocation

Historic Weather in Stamford — Graph

°F

Stamford temperature yesterday

Maximum temperature yesterday: 69 °F (at 2:56 PM)
Minimum temperature yesterday: 51 °F (at 2:56 AM)
Average temperature yesterday: 59 °F

Past Weeks' High & Low Weather Summary

 TemperatureHumidityPressure
High89 °F (Sep 2, 1:56 PM)97% (Sep 1, 10:56 PM)30.32 "Hg (Sep 1, 10:56 PM)
Low49 °F (Sep 14, 3:56 AM)33% (Sep 7, 3:56 PM)29.76 "Hg (Sep 2, 10:56 PM)
Average68 °F71%30.07 "Hg
* Reported Sep 1 9:56 PM — Sep 16 9:56 PM, Stamford, Weather by CustomWeather, © 2014

Note: Actual official high and low records may vary slightly from our data, if they occured in-between our weather recording intervals... More about our weather records

Advertising

Stamford weather history for previous 24 hours

 ConditionsComfort  
Time TempWeatherWind HumidityBarometerVisibility
9:56 PM
Sep 16
57 °FPassing clouds.6 mph90%30.01 "Hg10 mi
8:56 PM59 °FPassing clouds.No wind90%30.01 "Hg10 mi
7:56 PM58 °FScattered clouds.No wind90%29.99 "Hg10 mi
6:56 PM60 °FPartly sunny.No wind80%29.98 "Hg10 mi
5:56 PM66 °FBroken clouds.6 mph61%29.97 "Hg10 mi
4:56 PM66 °FMore clouds than sun.3 mph61%29.97 "Hg10 mi
3:56 PM67 °FPartly sunny.6 mph59%29.96 "Hg10 mi
2:56 PM70 °FPartly sunny.7 mph53%29.96 "Hg10 mi
1:56 PM68 °FScattered clouds.8 mph61%29.96 "Hg10 mi
12:56 PM64 °FScattered clouds.No wind78%29.98 "Hg10 mi
11:56 AM61 °FBroken clouds.No wind83%30.00 "Hg6 mi
10:56 AM58 °FLight rain. Fog.No wind93%30.01 "Hg3 mi
9:56 AM57 °FLight rain. Fog.6 mph90%30.03 "Hg6 mi
8:56 AM57 °FLight rain. Fog.6 mph90%30.03 "Hg5 mi
7:56 AM58 °FLight rain. Fog.3 mph87%30.01 "Hg5 mi
6:56 AM56 °FPassing clouds.No wind90%29.99 "Hg10 mi
5:56 AM56 °FPassing clouds.No wind87%30.00 "Hg10 mi
4:56 AM56 °FPassing clouds.No wind90%30.02 "Hg10 mi
3:56 AM56 °FClear.No wind90%30.03 "Hg10 mi
2:56 AM56 °FClear.No wind90%30.04 "Hg10 mi
1:56 AM56 °FClear.3 mph87%30.05 "Hg10 mi
12:56 AM55 °FClear.No wind87%30.06 "Hg10 mi
11:56 PM
Sep 15
55 °FClear.No wind83%30.08 "Hg10 mi
Weather by CustomWeather, © 2014

See weather overviewHow to use our weather pages